Time,TemperatureF,DewpointF,PressureIn,WindDirection,WindDirectionDegrees,WindSpeedMPH,WindSpeedGustMPH,Humidity,HourlyPrecipIn,Conditions,Clouds,dailyrainin,SoftwareType,DateUTC
2013-09-09 00:04:00,68.0,65.3,28.96,SE,135,10.4,10.4,91,0.00,RA,,0.00,WeatherDisplay:10.37,2013-09-09 05:04:00,
2013-09-09 00:09:00,68.0,65.3,28.96,SE,135,10.4,10.4,91,0.00,RA,,0.00,WeatherDisplay:10.37,2013-09-09 05:09:00,
2013-09-09 00:14:00,68.0,65.3,28.96,SE,135,12.7,12.7,91,0.00,CLR,,0.00,WeatherDisplay:10.37,2013-09-09 05:14:00,
2013-09-09 00:19:00,67.8,65.4,28.96,SE,135,12.7,12.7,92,0.00,CLR,,0.00,WeatherDisplay:10.37,2013-09-09 05:19:00,
2013-09-09 00:24:00,67.8,65.4,28.95,SE,135,15.0,15.0,92,0.00,CLR,,0.00,WeatherDisplay:10.37,2013-09-09 05:24:00,
2013-09-09 00:29:00,67.8,65.4,28.96,SE,135,15.0,15.0,92,0.00,CLR,,0.00,WeatherDisplay:10.37,2013-09-09 05:29:00,
2013-09-09 00:34:00,67.6,65.2,28.96,SE,135,12.7,12.7,92,0.00,CLR,,0.00,WeatherDisplay:10.37,2013-09-09 05:34:00,
2013-09-09 00:39:00,67.6,65.2,28.95,SE,135,12.7,12.7,92,0.00,CLR,,0.00,WeatherDisplay:10.37,2013-09-09 05:39:00,
2013-09-09 00:44:00,67.6,65.2,28.96,South,180,12.7,12.7,92,0.00,CLR,,0.00,WeatherDisplay:10.37,2013-09-09 05:44:00,
2013-09-09 00:49:00,67.6,65.2,28.95,South,180,11.5,11.5,92,0.00,CLR,,0.00,WeatherDisplay:10.37,2013-09-09 05:49:00,
2013-09-09 00:54:00,67.6,65.5,28.95,SE,135,12.7,12.7,93,0.00,CLR,,0.00,WeatherDisplay:10.37,2013-09-09 05:54:00,
2013-09-09 00:59:00,67.6,65.5,28.95,SE,135,10.4,10.4,93,0.00,CLR,,0.00,WeatherDisplay:10.37,2013-09-09 05:59:00,
2013-09-09 01:04:00,67.6,65.5,28.95,SE,135,9.2,9.2,93,0.00,CLR,,0.00,WeatherDisplay:10.37,2013-09-09 06:04:00,
2013-09-09 01:09:00,67.5,65.7,28.95,SE,135,10.4,10.4,94,0.00,CLR,,0.00,WeatherDisplay:10.37,2013-09-09 06:09:00,
2013-09-09 01:14:00,67.5,65.1,28.95,South,180,0.0,0.0,92,0.00,CLR,,0.00,WeatherDisplay:10.37,2013-09-09 06:14:00,
2013-09-09 01:19:00,67.5,65.7,28.95,SE,135,3.5,0.0,94,0.00,CLR,,0.00,WeatherDisplay:10.37,2013-09-09 06:19:00,
2013-09-09 01:24:00,67.5,65.7,28.95,South,180,10.4,10.4,94,0.00,CLR,,0.00,WeatherDisplay:10.37,2013-09-09 06:24:00,
2013-09-09 01:29:00,67.5,65.7,28.94,SE,135,9.2,0.0,94,0.00,CLR,,0.00,WeatherDisplay:10.37,2013-09-09 06:29:00,
2013-09-09 01:34:00,67.5,65.7,28.94,SE,135,12.7,12.7,94,0.00,CLR,,0.00,WeatherDisplay:10.37,2013-09-09 06:34:00,
2013-09-09 01:39:00,67.5,65.7,28.94,South,180,11.5,11.5,94,0.00,CLR,,0.00,WeatherDisplay:10.37,2013-09-09 06:39:00,
2013-09-09 01:44:00,67.5,65.7,28.94,SE,135,10.4,10.4,94,0.00,CLR,,0.00,WeatherDisplay:10.37,2013-09-09 06:44:00,
2013-09-09 01:49:00,67.3,65.2,28.94,SE,135,11.5,11.5,93,0.00,CLR,,0.00,WeatherDisplay:10.37,2013-09-09 06:49:00,
2013-09-09 01:54:00,67.3,65.5,28.94,SSE,158,12.7,12.7,94,0.00,CLR,,0.00,WeatherDisplay:10.37,2013-09-09 06:54:00,
2013-09-09 01:59:00,67.3,65.5,28.94,SSE,158,9.2,9.2,94,0.00,CLR,,0.00,WeatherDisplay:10.37,2013-09-09 06:59:00,
2013-09-09 02:04:00,67.3,65.8,28.94,SE,135,8.1,8.1,95,0.00,CLR,,0.00,WeatherDisplay:10.37,2013-09-09 07:04:00,
2013-09-09 02:09:00,67.3,65.5,28.94,SE,135,8.1,8.1,94,0.00,CLR,,0.00,WeatherDisplay:10.37,2013-09-09 07:09:00,
2013-09-09 02:14:00,67.3,65.5,28.94,South,180,8.1,8.1,94,0.00,CLR,,0.00,WeatherDisplay:10.37,2013-09-09 07:14:00,
2013-09-09 02:19:00,67.1,65.3,28.94,SE,135,0.0,0.0,94,0.00,CLR,,0.00,WeatherDisplay:10.37,2013-09-09 07:19:00,
2013-09-09 02:24:00,67.3,65.2,28.94,SE,135,10.4,10.4,93,0.00,CLR,,0.00,WeatherDisplay:10.37,2013-09-09 07:24:00,
2013-09-09 02:29:00,67.3,65.2,28.93,East,90,0.0,0.0,93,0.00,CLR,,0.00,WeatherDisplay:10.37,2013-09-09 07:29:00,
2013-09-09 02:34:00,67.3,65.5,28.93,SE,135,8.1,8.1,94,0.00,CLR,,0.00,WeatherDisplay:10.37,2013-09-09 07:34:00,
2013-09-09 02:39:00,67.5,65.7,28.93,SE,135,0.0,0.0,94,0.00,CLR,,0.00,WeatherDisplay:10.37,2013-09-09 07:39:00,
2013-09-09 02:44:00,67.5,66.0,28.92,SE,135,8.1,8.1,95,0.00,CLR,,0.00,WeatherDisplay:10.37,2013-09-09 07:44:00,
2013-09-09 02:49:00,67.5,65.7,28.92,SE,135,0.0,0.0,94,0.00,CLR,,0.00,WeatherDisplay:10.37,2013-09-09 07:49:00,
2013-09-09 02:54:00,67.5,66.0,28.93,South,180,0.0,0.0,95,0.00,CLR,,0.00,WeatherDisplay:10.37,2013-09-09 07:54:00,
2013-09-09 02:59:00,67.5,65.7,28.92,SE,135,0.0,0.0,94,0.00,CLR,,0.00,WeatherDisplay:10.37,2013-09-09 07:59:00,
2013-09-09 03:04:00,67.5,66.0,28.92,SE,135,0.0,0.0,95,0.00,CLR,,0.00,WeatherDisplay:10.37,2013-09-09 08:04:00,
2013-09-09 03:09:00,67.5,65.7,28.92,South,180,8.1,8.1,94,0.00,CLR,,0.00,WeatherDisplay:10.37,2013-09-09 08:09:00,
2013-09-09 03:14:00,67.6,66.2,28.92,SE,135,9.2,9.2,95,0.00,CLR,,0.00,WeatherDisplay:10.37,2013-09-09 08:14:00,
2013-09-09 03:19:00,67.5,65.7,28.92,South,180,9.2,9.2,94,0.00,CLR,,0.00,WeatherDisplay:10.37,2013-09-09 08:19:00,
2013-09-09 03:24:00,67.5,65.7,28.92,SE,135,9.2,9.2,94,0.00,CLR,,0.00,WeatherDisplay:10.37,2013-09-09 08:24:00,
2013-09-09 03:29:00,67.3,65.5,28.92,SE,135,8.1,8.1,94,0.00,CLR,,0.00,WeatherDisplay:10.37,2013-09-09 08:29:00,
2013-09-09 03:34:00,67.3,65.8,28.92,SE,135,0.0,0.0,95,0.00,CLR,,0.00,WeatherDisplay:10.37,2013-09-09 08:34:00,
2013-09-09 03:39:00,67.3,65.5,28.92,SE,135,0.0,0.0,94,0.00,CLR,,0.00,WeatherDisplay:10.37,2013-09-09 08:39:00,
2013-09-09 03:44:00,67.3,65.5,28.92,SE,135,0.0,0.0,94,0.00,CLR,,0.00,WeatherDisplay:10.37,2013-09-09 08:44:00,
2013-09-09 03:49:00,67.3,65.5,28.92,SE,135,0.0,0.0,94,0.00,CLR,,0.00,WeatherDisplay:10.37,2013-09-09 08:49:00,
2013-09-09 03:54:00,67.3,65.8,28.91,SE,135,8.1,8.1,95,0.00,CLR,,0.00,WeatherDisplay:10.37,2013-09-09 08:54:00,
2013-09-09 03:59:00,67.5,66.3,28.91,South,180,9.2,9.2,96,0.00,CLR,,0.00,WeatherDisplay:10.37,2013-09-09 08:59:00,
2013-09-09 04:04:00,67.5,66.3,28.91,SE,135,8.1,8.1,96,0.00,CLR,,0.00,WeatherDisplay:10.37,2013-09-09 09:04:00,
2013-09-09 04:09:00,67.3,65.8,28.90,SE,135,0.0,0.0,95,0.00,CLR,,0.00,WeatherDisplay:10.37,2013-09-09 09:09:00,
2013-09-09 04:14:00,67.3,65.8,28.90,SE,135,0.0,0.0,95,0.00,CLR,,0.00,WeatherDisplay:10.37,2013-09-09 09:14:00,
2013-09-09 04:19:00,67.3,65.5,28.90,SE,135,10.4,10.4,94,0.00,CLR,,0.00,WeatherDisplay:10.37,2013-09-09 09:19:00,
2013-09-09 04:24:00,67.3,65.8,28.91,SE,135,1.1,0.0,95,0.00,CLR,,0.00,WeatherDisplay:10.37,2013-09-09 09:24:00,
2013-09-09 04:29:00,67.3,65.8,28.90,SE,135,0.0,0.0,95,0.00,CLR,,0.00,WeatherDisplay:10.37,2013-09-09 09:29:00,
2013-09-09 04:34:00,67.3,65.8,28.90,SE,135,0.0,0.0,95,0.00,CLR,,0.00,WeatherDisplay:10.37,2013-09-09 09:34:00,
2013-09-09 04:39:00,67.5,66.0,28.90,SE,135,1.1,0.0,95,0.00,CLR,,0.00,WeatherDisplay:10.37,2013-09-09 09:39:00,
2013-09-09 04:44:00,67.3,65.8,28.90,SE,135,0.0,0.0,95,0.00,CLR,,0.00,WeatherDisplay:10.37,2013-09-09 09:44:00,
2013-09-09 04:49:00,67.3,65.5,28.90,SE,135,0.0,0.0,94,0.00,CLR,,0.00,WeatherDisplay:10.37,2013-09-09 09:49:00,
2013-09-09 04:54:00,67.3,65.8,28.90,South,180,0.0,0.0,95,0.00,CLR,,0.00,WeatherDisplay:10.37,2013-09-09 09:54:00,
2013-09-09 04:59:00,67.1,65.6,28.89,South,180,9.2,9.2,95,0.00,CLR,,0.00,WeatherDisplay:10.37,2013-09-09 09:59:00,
2013-09-09 05:04:00,67.1,65.6,28.90,ESE,112,10.4,10.4,95,0.00,CLR,,0.00,WeatherDisplay:10.37,2013-09-09 10:04:00,
2013-09-09 05:09:00,67.3,65.8,28.90,SE,135,0.0,0.0,95,0.00,CLR,,0.00,WeatherDisplay:10.37,2013-09-09 10:09:00,
2013-09-09 05:14:00,67.1,65.6,28.90,SE,135,4.5,4.5,95,0.00,CLR,,0.00,WeatherDisplay:10.37,2013-09-09 10:14:00,
2013-09-09 05:19:00,67.1,65.6,28.90,SE,135,0.0,0.0,95,0.00,CLR,,0.00,WeatherDisplay:10.37,2013-09-09 10:19:00,
2013-09-09 05:24:00,66.9,65.1,28.90,SE,135,3.5,0.0,94,0.00,CLR,,0.00,WeatherDisplay:10.37,2013-09-09 10:24:00,
2013-09-09 05:29:00,66.9,65.4,28.90,SE,135,0.0,0.0,95,0.00,CLR,,0.00,WeatherDisplay:10.37,2013-09-09 10:29:00,
2013-09-09 05:34:00,67.1,65.6,28.89,SE,135,0.0,0.0,95,0.00,CLR,,0.00,WeatherDisplay:10.37,2013-09-09 10:34:00,
2013-09-09 05:39:00,67.1,65.6,28.89,SE,135,0.0,0.0,95,0.00,CLR,,0.00,WeatherDisplay:10.37,2013-09-09 10:39:00,
2013-09-09 05:44:00,67.1,65.6,28.89,SE,135,0.0,0.0,95,0.00,CLR,,0.00,WeatherDisplay:10.37,2013-09-09 10:44:00,
2013-09-09 05:49:00,66.9,65.4,28.89,SE,135,8.1,8.1,95,0.00,CLR,,0.00,WeatherDisplay:10.37,2013-09-09 10:49:00,
2013-09-09 05:54:00,66.9,65.7,28.88,SE,135,9.2,9.2,96,0.00,CLR,,0.00,WeatherDisplay:10.37,2013-09-09 10:54:00,
2013-09-09 05:59:00,67.1,65.9,28.88,SE,135,11.5,11.5,96,0.00,CLR,,0.00,WeatherDisplay:10.37,2013-09-09 10:59:00,
2013-09-09 06:04:00,67.1,65.9,28.88,SE,135,8.1,8.1,96,0.00,CLR,,0.00,WeatherDisplay:10.37,2013-09-09 11:04:00,
2013-09-09 06:09:00,67.1,65.9,28.88,South,180,1.1,0.0,96,0.00,CLR,,0.00,WeatherDisplay:10.37,2013-09-09 11:09:00,
2013-09-09 06:14:00,66.9,65.7,28.88,SE,135,8.1,8.1,96,0.00,CLR,,0.00,WeatherDisplay:10.37,2013-09-09 11:14:00,
2013-09-09 06:19:00,66.9,65.7,28.89,SE,135,9.2,9.2,96,0.00,CLR,,0.00,WeatherDisplay:10.37,2013-09-09 11:19:00,
2013-09-09 06:24:00,66.9,65.7,28.88,East,90,0.0,0.0,96,0.00,CLR,,0.00,WeatherDisplay:10.37,2013-09-09 11:24:00,
2013-09-09 06:29:00,66.6,65.1,28.88,East,90,0.0,0.0,95,0.00,CLR,,0.00,WeatherDisplay:10.37,2013-09-09 11:29:00,
2013-09-09 06:34:00,66.4,64.9,28.88,SE,135,0.0,0.0,95,0.00,CLR,,0.00,WeatherDisplay:10.37,2013-09-09 11:34:00,
2013-09-09 06:39:00,66.4,64.9,28.88,East,90,0.0,0.0,95,0.00,CLR,,0.00,WeatherDisplay:10.37,2013-09-09 11:39:00,
2013-09-09 06:44:00,66.4,64.9,28.87,SE,135,0.0,0.0,95,0.00,CLR,,0.00,WeatherDisplay:10.37,2013-09-09 11:44:00,
2013-09-09 06:49:00,66.6,65.4,28.87,SE,135,0.0,0.0,96,0.00,CLR,,0.00,WeatherDisplay:10.37,2013-09-09 11:49:00,
2013-09-09 06:54:00,66.6,65.4,28.87,SE,135,10.4,10.4,96,0.00,CLR,,0.00,WeatherDisplay:10.37,2013-09-09 11:54:00,
2013-09-09 06:59:00,66.6,65.4,28.87,SE,135,8.1,0.0,96,0.00,CLR,,0.00,WeatherDisplay:10.37,2013-09-09 11:59:00,
2013-09-09 07:04:00,66.6,65.4,28.87,SE,135,0.0,0.0,96,0.00,CLR,,0.00,WeatherDisplay:10.37,2013-09-09 12:04:00,
2013-09-09 07:09:00,66.7,65.6,28.87,SE,135,10.4,10.4,96,0.00,CLR,,0.00,WeatherDisplay:10.37,2013-09-09 12:09:00,
2013-09-09 07:14:00,66.9,65.7,28.87,SE,135,10.4,10.4,96,0.00,CLR,,0.00,WeatherDisplay:10.37,2013-09-09 12:14:00,
2013-09-09 07:19:00,66.7,65.6,28.87,SE,135,12.7,12.7,96,0.00,CLR,,0.00,WeatherDisplay:10.37,2013-09-09 12:19:00,
2013-09-09 07:24:00,66.9,65.7,28.87,SE,135,0.0,0.0,96,0.00,CLR,,0.00,WeatherDisplay:10.37,2013-09-09 12:24:00,
2013-09-09 07:29:00,66.7,65.3,28.87,SE,135,0.0,0.0,95,0.00,CLR,,0.00,WeatherDisplay:10.37,2013-09-09 12:29:00,
2013-09-09 07:34:00,66.6,65.1,28.88,SE,135,0.0,0.0,95,0.00,CLR,,0.00,WeatherDisplay:10.37,2013-09-09 12:34:00,
2013-09-09 07:39:00,66.6,65.1,28.89,South,180,0.0,0.0,95,0.00,CLR,,0.00,WeatherDisplay:10.37,2013-09-09 12:39:00,
2013-09-09 07:44:00,66.7,65.3,28.90,South,180,0.0,0.0,95,0.00,CLR,,0.00,WeatherDisplay:10.37,2013-09-09 12:44:00,
2013-09-09 07:49:00,66.9,65.4,28.90,SE,135,0.0,0.0,95,0.00,CLR,,0.00,WeatherDisplay:10.37,2013-09-09 12:49:00,
2013-09-09 07:54:00,67.1,65.6,28.90,SE,135,0.0,0.0,95,0.00,CLR,,0.00,WeatherDisplay:10.37,2013-09-09 12:54:00,
2013-09-09 07:59:00,67.1,65.3,28.90,SW,225,0.0,0.0,94,0.00,CLR,,0.00,WeatherDisplay:10.37,2013-09-09 12:59:00,
2013-09-09 08:04:00,67.5,65.4,28.89,SE,135,0.0,0.0,93,0.00,CLR,,0.00,WeatherDisplay:10.37,2013-09-09 13:04:00,
2013-09-09 08:09:00,67.5,65.4,28.90,South,180,1.1,0.0,93,0.00,CLR,,0.00,WeatherDisplay:10.37,2013-09-09 13:09:00,
2013-09-09 08:14:00,67.6,65.5,28.89,SE,135,0.0,0.0,93,0.00,CLR,,0.00,WeatherDisplay:10.37,2013-09-09 13:14:00,
2013-09-09 08:19:00,67.8,65.7,28.89,South,180,0.0,0.0,93,0.00,CLR,,0.00,WeatherDisplay:10.37,2013-09-09 13:19:00,
2013-09-09 08:24:00,67.8,65.4,28.88,SE,135,0.0,0.0,92,0.00,CLR,,0.00,WeatherDisplay:10.37,2013-09-09 13:24:00,
2013-09-09 08:29:00,67.8,65.7,28.88,ESE,112,0.0,0.0,93,0.00,CLR,,0.00,WeatherDisplay:10.37,2013-09-09 13:29:00,
2013-09-09 08:34:00,68.0,66.2,28.87,SE,135,8.1,8.1,94,0.00,CLR,,0.00,WeatherDisplay:10.37,2013-09-09 13:34:00,
2013-09-09 08:39:00,68.2,66.1,28.87,East,90,0.0,0.0,93,0.00,CLR,,0.00,WeatherDisplay:10.37,2013-09-09 13:39:00,
2013-09-09 08:44:00,68.4,66.3,28.86,East,90,4.6,0.0,93,0.00,CLR,,0.00,WeatherDisplay:10.37,2013-09-09 13:44:00,
2013-09-09 08:49:00,68.4,65.9,28.86,SSE,158,0.0,0.0,92,0.00,CLR,,0.00,WeatherDisplay:10.37,2013-09-09 13:49:00,
2013-09-09 08:54:00,68.5,66.4,28.87,SE,135,0.0,0.0,93,0.00,CLR,,0.00,WeatherDisplay:10.37,2013-09-09 13:54:00,
2013-09-09 08:59:00,68.5,66.1,28.89,ESE,112,9.2,9.2,92,0.00,CLR,,0.00,WeatherDisplay:10.37,2013-09-09 13:59:00,
2013-09-09 09:04:00,68.4,66.3,28.88,SE,135,0.0,0.0,93,0.00,CLR,,0.00,WeatherDisplay:10.37,2013-09-09 14:04:00,
2013-09-09 09:09:00,68.5,66.4,28.89,SE,135,0.0,0.0,93,0.00,CLR,,0.00,WeatherDisplay:10.37,2013-09-09 14:09:00,
2013-09-09 09:14:00,68.5,66.4,28.88,SE,135,8.1,8.1,93,0.00,CLR,,0.00,WeatherDisplay:10.37,2013-09-09 14:14:00,
2013-09-09 09:19:00,68.5,66.4,28.87,SE,135,6.9,6.9,93,0.00,CLR,,0.00,WeatherDisplay:10.37,2013-09-09 14:19:00,
2013-09-09 09:24:00,68.5,66.4,28.85,SE,135,8.1,8.1,93,0.00,CLR,,0.00,WeatherDisplay:10.37,2013-09-09 14:24:00,
2013-09-09 09:29:00,68.5,66.7,28.84,SE,135,6.9,6.9,94,0.00,CLR,,0.00,WeatherDisplay:10.37,2013-09-09 14:29:00,
2013-09-09 09:34:00,68.5,66.4,28.83,SE,135,9.2,9.2,93,0.00,CLR,,0.00,WeatherDisplay:10.37,2013-09-09 14:34:00,
2013-09-09 09:39:00,68.5,66.7,28.83,East,90,5.8,0.0,94,0.00,CLR,,0.00,WeatherDisplay:10.37,2013-09-09 14:39:00,
2013-09-09 09:44:00,68.7,66.6,28.84,SE,135,11.5,0.0,93,0.00,CLR,,0.00,WeatherDisplay:10.37,2013-09-09 14:44:00,
2013-09-09 09:49:00,68.7,66.6,28.83,East,90,13.8,13.8,93,0.00,CLR,,0.00,WeatherDisplay:10.37,2013-09-09 14:49:00,
2013-09-09 09:54:00,68.9,67.1,28.83,SE,135,15.0,15.0,94,0.00,CLR,,0.00,WeatherDisplay:10.37,2013-09-09 14:54:00,
2013-09-09 09:59:00,69.1,67.0,28.84,SE,135,13.8,13.8,93,0.00,CLR,,0.00,WeatherDisplay:10.37,2013-09-09 14:59:00,
2013-09-09 10:04:00,69.3,67.1,28.83,SE,135,13.8,13.8,93,0.00,CLR,,0.00,WeatherDisplay:10.37,2013-09-09 15:04:00,
2013-09-09 10:09:00,69.3,66.8,28.84,SE,135,13.8,13.8,92,0.00,CLR,,0.00,WeatherDisplay:10.37,2013-09-09 15:09:00,
2013-09-09 10:14:00,69.6,67.2,28.84,East,90,10.4,10.4,92,0.00,CLR,,0.00,WeatherDisplay:10.37,2013-09-09 15:14:00,
2013-09-09 10:19:00,69.8,67.1,28.85,South,180,0.0,0.0,91,0.00,CLR,,0.00,WeatherDisplay:10.37,2013-09-09 15:19:00,
2013-09-09 10:24:00,70.2,67.1,28.85,SE,135,1.1,0.0,90,0.00,CLR,,0.00,WeatherDisplay:10.37,2013-09-09 15:24:00,
2013-09-09 10:29:00,70.3,67.3,28.85,East,90,5.8,5.8,90,0.00,CLR,,0.00,WeatherDisplay:10.37,2013-09-09 15:29:00,
2013-09-09 10:34:00,70.9,67.1,28.85,NE,45,3.5,3.5,88,0.00,CLR,,0.00,WeatherDisplay:10.37,2013-09-09 15:34:00,
2013-09-09 10:39:00,71.2,67.2,28.85,SE,135,6.0,6.0,87,0.00,CLR,,0.00,WeatherDisplay:10.37,2013-09-09 15:39:00,
2013-09-09 10:44:00,71.6,67.2,28.85,SE,135,5.8,5.8,86,0.00,CLR,,0.00,WeatherDisplay:10.37,2013-09-09 15:44:00,
2013-09-09 10:49:00,71.4,67.3,28.84,South,180,2.3,2.3,87,0.00,CLR,,0.00,WeatherDisplay:10.37,2013-09-09 15:49:00,
2013-09-09 10:54:00,71.1,67.7,28.84,SE,135,8.1,8.1,89,0.00,CLR,,0.00,WeatherDisplay:10.37,2013-09-09 15:54:00,
2013-09-09 10:59:00,70.9,67.5,28.83,SE,135,3.5,0.0,89,0.00,CLR,,0.00,WeatherDisplay:10.37,2013-09-09 15:59:00,
2013-09-09 11:04:00,70.9,67.8,28.83,SE,135,11.5,11.5,90,0.00,CLR,,0.00,WeatherDisplay:10.37,2013-09-09 16:04:00,
2013-09-09 11:09:00,71.2,67.8,28.83,East,90,8.1,8.1,89,0.00,CLR,,0.00,WeatherDisplay:10.37,2013-09-09 16:09:00,
2013-09-09 11:14:00,71.8,68.0,28.83,East,90,5.8,0.0,88,0.00,CLR,,0.00,WeatherDisplay:10.37,2013-09-09 16:14:00,
2013-09-09 11:19:00,71.8,68.0,28.83,SE,135,8.1,8.1,88,0.00,CLR,,0.00,WeatherDisplay:10.37,2013-09-09 16:19:00,
2013-09-09 11:24:00,71.4,67.7,28.83,SE,135,10.4,10.4,88,0.00,CLR,,0.00,WeatherDisplay:10.37,2013-09-09 16:24:00,
2013-09-09 11:29:00,71.6,67.9,28.84,SE,135,10.4,10.4,88,0.00,CLR,,0.00,WeatherDisplay:10.37,2013-09-09 16:29:00,
2013-09-09 11:34:00,71.8,67.7,28.83,SSE,158,9.2,9.2,87,0.00,CLR,,0.00,WeatherDisplay:10.37,2013-09-09 16:34:00,
2013-09-09 11:39:00,72.3,68.2,28.83,East,90,9.2,9.2,87,0.00,CLR,,0.00,WeatherDisplay:10.37,2013-09-09 16:39:00,
2013-09-09 11:44:00,72.5,68.1,28.83,East,90,8.1,8.1,86,0.00,CLR,,0.00,WeatherDisplay:10.37,2013-09-09 16:44:00,
2013-09-09 11:49:00,72.9,68.4,28.83,SE,135,5.8,5.8,86,0.00,CLR,,0.00,WeatherDisplay:10.37,2013-09-09 16:49:00,
2013-09-09 11:54:00,73.8,69.0,28.82,SW,225,11.5,11.5,85,0.00,CLR,,0.00,WeatherDisplay:10.37,2013-09-09 16:54:00,
2013-09-09 11:59:00,73.4,69.0,28.82,South,180,10.4,10.4,86,0.00,CLR,,0.00,WeatherDisplay:10.37,2013-09-09 16:59:00,
2013-09-09 12:04:00,73.9,69.1,28.82,SE,135,10.4,10.4,85,0.00,CLR,,0.00,WeatherDisplay:10.37,2013-09-09 17:04:00,
2013-09-09 12:09:00,73.9,69.1,28.81,SE,135,12.7,12.7,85,0.00,CLR,,0.00,WeatherDisplay:10.37,2013-09-09 17:09:00,
2013-09-09 12:14:00,74.1,69.0,28.80,East,90,12.7,0.0,84,0.00,CLR,,0.00,WeatherDisplay:10.37,2013-09-09 17:14:00,
2013-09-09 12:19:00,74.3,68.8,28.80,SE,135,12.7,12.7,83,0.00,CLR,,0.00,WeatherDisplay:10.37,2013-09-09 17:19:00,
2013-09-09 12:24:00,74.7,69.5,28.80,SE,135,15.0,15.0,84,0.00,CLR,,0.00,WeatherDisplay:10.37,2013-09-09 17:24:00,
2013-09-09 12:29:00,75.2,69.3,28.80,SE,135,12.7,12.7,82,0.00,CLR,,0.00,WeatherDisplay:10.37,2013-09-09 17:29:00,
2013-09-09 12:34:00,75.4,69.5,28.80,SE,135,11.5,11.5,82,0.00,CLR,,0.00,WeatherDisplay:10.37,2013-09-09 17:34:00,
2013-09-09 12:39:00,76.3,70.0,28.79,SE,135,15.0,15.0,81,0.00,CLR,,0.00,WeatherDisplay:10.37,2013-09-09 17:39:00,
2013-09-09 12:44:00,76.3,70.0,28.79,SE,135,15.0,15.0,81,0.00,CLR,,0.00,WeatherDisplay:10.37,2013-09-09 17:44:00,
2013-09-09 12:49:00,76.8,70.9,28.78,South,180,13.0,13.0,82,0.00,CLR,,0.00,WeatherDisplay:10.37,2013-09-09 17:49:00,
2013-09-09 12:54:00,77.0,70.4,28.79,SE,135,15.0,15.0,80,0.00,CLR,,0.00,WeatherDisplay:10.37,2013-09-09 17:54:00,
2013-09-09 12:59:00,77.2,70.9,28.78,SSE,158,12.7,12.7,81,0.00,CLR,,0.00,WeatherDisplay:10.37,2013-09-09 17:59:00,
2013-09-09 13:04:00,77.0,70.4,28.78,SE,135,15.0,15.0,80,0.00,CLR,,0.00,WeatherDisplay:10.37,2013-09-09 18:04:00,
2013-09-09 13:09:00,77.2,70.9,28.78,SE,135,15.0,15.0,81,0.00,CLR,,0.00,WeatherDisplay:10.37,2013-09-09 18:09:00,
2013-09-09 13:14:00,77.5,70.9,28.77,SE,135,13.8,13.8,80,0.00,CLR,,0.00,WeatherDisplay:10.37,2013-09-09 18:14:00,
2013-09-09 13:19:00,77.7,71.1,28.77,SE,135,6.9,0.0,80,0.00,CLR,,0.00,WeatherDisplay:10.37,2013-09-09 18:19:00,
2013-09-09 13:24:00,77.7,71.4,28.77,SE,135,15.0,15.0,81,0.00,CLR,,0.00,WeatherDisplay:10.37,2013-09-09 18:24:00,
2013-09-09 13:29:00,77.7,71.1,28.76,SE,135,15.0,15.0,80,0.00,CLR,,0.00,WeatherDisplay:10.37,2013-09-09 18:29:00,
2013-09-09 13:34:00,77.7,71.4,28.77,SE,135,5.8,0.0,81,0.00,CLR,,0.00,WeatherDisplay:10.37,2013-09-09 18:34:00,
2013-09-09 13:39:00,78.4,71.4,28.76,SSE,158,10.4,0.0,79,0.00,CLR,,0.00,WeatherDisplay:10.37,2013-09-09 18:39:00,
2013-09-09 13:44:00,78.3,71.6,28.77,South,180,12.7,0.0,80,0.00,CLR,,0.00,WeatherDisplay:10.37,2013-09-09 18:44:00,
2013-09-09 13:49:00,78.3,71.2,28.76,SE,135,9.2,0.0,79,0.00,CLR,,0.00,WeatherDisplay:10.37,2013-09-09 18:49:00,
2013-09-09 13:54:00,78.6,71.9,28.76,South,180,8.1,0.0,80,0.00,CLR,,0.00,WeatherDisplay:10.37,2013-09-09 18:54:00,
2013-09-09 13:59:00,78.8,71.7,28.76,SSE,158,10.4,0.0,79,0.00,CLR,,0.00,WeatherDisplay:10.37,2013-09-09 18:59:00,
2013-09-09 14:04:00,79.2,71.7,28.76,South,180,13.8,13.8,78,0.00,CLR,,0.00,WeatherDisplay:10.37,2013-09-09 19:04:00,
2013-09-09 14:09:00,79.3,72.3,28.75,South,180,11.5,11.5,79,0.00,CLR,,0.00,WeatherDisplay:10.37,2013-09-09 19:09:00,
2013-09-09 14:14:00,79.2,71.3,28.75,SE,135,1.1,0.0,77,0.00,CLR,,0.00,WeatherDisplay:10.37,2013-09-09 19:14:00,
2013-09-09 14:19:00,79.7,72.2,28.74,South,180,9.2,9.2,78,0.00,CLR,,0.00,WeatherDisplay:10.37,2013-09-09 19:19:00,
2013-09-09 14:24:00,80.2,72.4,28.74,SE,135,15.0,15.0,77,0.00,CLR,,0.00,WeatherDisplay:10.37,2013-09-09 19:24:00,
2013-09-09 14:29:00,79.9,72.4,28.74,SE,135,12.7,0.0,78,0.00,CLR,,0.00,WeatherDisplay:10.37,2013-09-09 19:29:00,
2013-09-09 14:34:00,80.4,72.2,28.73,SE,135,11.5,0.0,76,0.00,CLR,,0.00,WeatherDisplay:10.37,2013-09-09 19:34:00,
2013-09-09 14:39:00,81.0,72.7,28.73,South,180,9.2,0.0,76,0.00,CLR,,0.00,WeatherDisplay:10.37,2013-09-09 19:39:00,
2013-09-09 14:44:00,81.1,72.5,28.73,South,180,9.2,9.2,75,0.00,CLR,,0.00,WeatherDisplay:10.37,2013-09-09 19:44:00,
2013-09-09 14:49:00,81.7,72.6,28.73,South,180,11.5,0.0,74,0.00,CLR,,0.00,WeatherDisplay:10.37,2013-09-09 19:49:00,
2013-09-09 14:54:00,82.0,72.5,28.72,South,180,8.1,8.1,73,0.00,CLR,,0.00,WeatherDisplay:10.37,2013-09-09 19:54:00,
2013-09-09 14:59:00,82.8,73.2,28.72,WSW,248,5.8,0.0,73,0.00,CLR,,0.00,WeatherDisplay:10.37,2013-09-09 19:59:00,
2013-09-09 15:04:00,83.7,73.3,28.72,South,180,6.9,0.0,71,0.00,CLR,,0.00,WeatherDisplay:10.37,2013-09-09 20:04:00,
2013-09-09 15:09:00,84.2,72.9,28.72,South,180,10.4,0.0,69,0.00,CLR,,0.00,WeatherDisplay:10.37,2013-09-09 20:09:00,
2013-09-09 15:14:00,84.6,73.3,28.72,SSE,158,6.9,0.0,69,0.00,CLR,,0.00,WeatherDisplay:10.37,2013-09-09 20:14:00,
2013-09-09 15:19:00,84.6,73.3,28.72,South,180,5.8,5.8,69,0.00,CLR,,0.00,WeatherDisplay:10.37,2013-09-09 20:19:00,
2013-09-09 15:24:00,85.6,72.5,28.72,South,180,11.5,0.0,65,0.00,CLR,,0.00,WeatherDisplay:10.37,2013-09-09 20:24:00,
2013-09-09 15:29:00,86.5,71.0,28.71,South,180,21.9,21.9,60,0.00,CLR,,0.00,WeatherDisplay:10.37,2013-09-09 20:29:00,
2013-09-09 15:34:00,86.9,71.8,28.71,SE,135,19.6,19.6,61,0.00,CLR,,0.00,WeatherDisplay:10.37,2013-09-09 20:34:00,
2013-09-09 15:39:00,87.1,71.0,28.71,South,180,20.7,20.7,59,0.00,CLR,,0.00,WeatherDisplay:10.37,2013-09-09 20:39:00,
2013-09-09 15:44:00,86.9,70.8,28.71,South,180,20.7,20.7,59,0.00,CLR,,0.00,WeatherDisplay:10.37,2013-09-09 20:44:00,
2013-09-09 15:49:00,87.6,71.0,28.71,South,180,19.6,19.6,58,0.00,CLR,,0.00,WeatherDisplay:10.37,2013-09-09 20:49:00,
2013-09-09 15:54:00,87.6,71.0,28.71,South,180,18.4,18.4,58,0.00,CLR,,0.00,WeatherDisplay:10.37,2013-09-09 20:54:00,
2013-09-09 15:59:00,87.4,70.8,28.71,South,180,21.9,21.9,58,0.00,CLR,,0.00,WeatherDisplay:10.37,2013-09-09 20:59:00,
2013-09-09 16:04:00,87.4,71.3,28.71,South,180,19.6,19.6,59,0.00,CLR,,0.00,WeatherDisplay:10.37,2013-09-09 21:04:00,
2013-09-09 16:09:00,87.6,71.0,28.70,South,180,20.7,20.7,58,0.00,CLR,,0.00,WeatherDisplay:10.37,2013-09-09 21:09:00,
2013-09-09 16:14:00,87.8,71.2,28.70,South,180,16.1,16.1,58,0.00,CLR,,0.00,WeatherDisplay:10.37,2013-09-09 21:14:00,
2013-09-09 16:19:00,87.4,70.8,28.70,SW,225,17.3,17.3,58,0.00,CLR,,0.00,WeatherDisplay:10.37,2013-09-09 21:19:00,
2013-09-09 16:24:00,88.0,71.3,28.70,South,180,12.7,12.7,58,0.00,CLR,,0.00,WeatherDisplay:10.37,2013-09-09 21:24:00,
2013-09-09 16:29:00,87.8,70.7,28.71,South,180,19.6,19.6,57,0.00,CLR,,0.00,WeatherDisplay:10.37,2013-09-09 21:29:00,
2013-09-09 16:34:00,87.8,71.2,28.70,SSE,158,17.3,17.3,58,0.00,CLR,,0.00,WeatherDisplay:10.37,2013-09-09 21:34:00,
2013-09-09 16:39:00,87.8,71.2,28.70,South,180,1.1,0.0,58,0.00,CLR,,0.00,WeatherDisplay:10.37,2013-09-09 21:39:00,
2013-09-09 16:44:00,87.4,71.8,28.71,East,90,15.0,0.0,60,0.00,CLR,,0.00,WeatherDisplay:10.37,2013-09-09 21:44:00,
2013-09-09 16:49:00,87.3,71.7,28.70,South,180,16.1,16.1,60,0.00,CLR,,0.00,WeatherDisplay:10.37,2013-09-09 21:49:00,
2013-09-09 16:54:00,87.3,71.7,28.70,South,180,13.8,0.0,60,0.00,CLR,,0.00,WeatherDisplay:10.37,2013-09-09 21:54:00,
2013-09-09 16:59:00,87.3,72.2,28.70,South,180,11.5,11.5,61,0.00,CLR,,0.00,WeatherDisplay:10.37,2013-09-09 21:59:00,
2013-09-09 17:04:00,87.4,71.8,28.70,South,180,0.0,0.0,60,0.00,CLR,,0.00,WeatherDisplay:10.37,2013-09-09 22:04:00,
2013-09-09 17:09:00,87.4,72.3,28.70,South,180,19.6,19.6,61,0.00,CLR,,0.00,WeatherDisplay:10.37,2013-09-09 22:09:00,
2013-09-09 17:14:00,88.0,72.4,28.70,South,180,16.1,16.1,60,0.00,CLR,,0.00,WeatherDisplay:10.37,2013-09-09 22:14:00,
2013-09-09 17:19:00,87.8,72.7,28.70,South,180,19.6,19.6,61,0.00,CLR,,0.00,WeatherDisplay:10.37,2013-09-09 22:19:00,
2013-09-09 17:24:00,87.8,73.2,28.70,South,180,15.0,15.0,62,0.00,CLR,,0.00,WeatherDisplay:10.37,2013-09-09 22:24:00,
2013-09-09 17:29:00,87.6,73.0,28.70,South,180,19.6,19.6,62,0.00,CLR,,0.00,WeatherDisplay:10.37,2013-09-09 22:29:00,
2013-09-09 17:34:00,87.6,73.0,28.69,South,180,19.6,19.6,62,0.00,CLR,,0.00,WeatherDisplay:10.37,2013-09-09 22:34:00,
2013-09-09 17:39:00,87.8,73.6,28.69,South,180,20.7,20.7,63,0.00,CLR,,0.00,WeatherDisplay:10.37,2013-09-09 22:39:00,
2013-09-09 17:44:00,88.2,73.5,28.69,South,180,15.0,0.0,62,0.00,CLR,,0.00,WeatherDisplay:10.37,2013-09-09 22:44:00,
2013-09-09 17:49:00,88.2,74.0,28.70,South,180,8.1,0.0,63,0.00,CLR,,0.00,WeatherDisplay:10.37,2013-09-09 22:49:00,
2013-09-09 17:54:00,88.3,74.1,28.70,South,180,15.0,0.0,63,0.00,CLR,,0.00,WeatherDisplay:10.37,2013-09-09 22:54:00,
2013-09-09 17:59:00,88.0,73.8,28.70,SSE,158,1.1,0.0,63,0.00,CLR,,0.00,WeatherDisplay:10.37,2013-09-09 22:59:00,
2013-09-09 18:04:00,87.8,74.1,28.70,South,180,13.8,13.8,64,0.00,CLR,,0.00,WeatherDisplay:10.37,2013-09-09 23:04:00,
2013-09-09 18:09:00,87.6,74.4,28.70,South,180,0.0,0.0,65,0.00,CLR,,0.00,WeatherDisplay:10.37,2013-09-09 23:09:00,
2013-09-09 18:14:00,87.4,74.2,28.69,South,180,12.7,12.7,65,0.00,CLR,,0.00,WeatherDisplay:10.37,2013-09-09 23:14:00,
2013-09-09 18:19:00,87.8,74.6,28.70,South,180,10.4,10.4,65,0.00,CLR,,0.00,WeatherDisplay:10.37,2013-09-09 23:19:00,
2013-09-09 18:24:00,87.8,74.6,28.70,South,180,9.8,9.8,65,0.00,CLR,,0.00,WeatherDisplay:10.37,2013-09-09 23:24:00,
2013-09-09 18:29:00,88.0,74.7,28.69,South,180,9.2,9.2,65,0.00,CLR,,0.00,WeatherDisplay:10.37,2013-09-09 23:29:00,
2013-09-09 18:34:00,88.0,74.7,28.70,South,180,9.2,9.2,65,0.00,CLR,,0.00,WeatherDisplay:10.37,2013-09-09 23:34:00,
2013-09-09 18:39:00,88.2,74.9,28.70,South,180,9.2,0.0,65,0.00,CLR,,0.00,WeatherDisplay:10.37,2013-09-09 23:39:00,
2013-09-09 18:44:00,88.2,74.9,28.69,South,180,1.1,0.0,65,0.00,CLR,,0.00,WeatherDisplay:10.37,2013-09-09 23:44:00,
2013-09-09 18:49:00,87.8,75.0,28.70,South,180,3.5,5.4,66,0.00,CLR,,0.00,WeatherDisplay:10.37,2013-09-09 23:49:00,
2013-09-09 18:54:00,87.6,75.3,28.69,SSE,158,6.9,6.9,67,0.00,CLR,,0.00,WeatherDisplay:10.37,2013-09-09 23:54:00,
2013-09-09 18:59:00,86.7,74.9,28.69,SSE,158,6.0,6.0,68,0.00,CLR,,0.00,WeatherDisplay:10.37,2013-09-09 23:59:00,
2013-09-09 19:04:00,86.4,75.0,28.69,South,180,5.8,0.0,69,0.00,CLR,,0.00,WeatherDisplay:10.37,2013-09-10 00:04:00,
2013-09-09 19:09:00,85.5,75.4,28.69,SE,135,5.8,5.8,72,0.00,CLR,,0.00,WeatherDisplay:10.37,2013-09-10 00:09:00,
2013-09-09 19:14:00,84.4,75.2,28.69,SE,135,5.8,5.8,74,0.00,CLR,,0.00,WeatherDisplay:10.37,2013-09-10 00:14:00,
2013-09-09 19:19:00,83.8,75.1,28.69,SE,135,8.1,8.1,75,0.00,CLR,,0.00,WeatherDisplay:10.37,2013-09-10 00:19:00,
2013-09-09 19:24:00,83.1,74.8,28.69,SE,135,5.8,5.8,76,0.00,CLR,,0.00,WeatherDisplay:10.37,2013-09-10 00:24:00,
2013-09-09 19:29:00,82.8,74.8,28.69,SE,135,4.6,4.6,77,0.00,CLR,,0.00,WeatherDisplay:10.37,2013-09-10 00:29:00,
2013-09-09 19:34:00,82.8,74.8,28.70,SE,135,3.5,3.5,77,0.00,CLR,,0.00,WeatherDisplay:10.37,2013-09-10 00:34:00,
2013-09-09 19:39:00,82.9,74.2,28.70,South,180,4.6,4.6,75,0.00,CLR,,0.00,WeatherDisplay:10.37,2013-09-10 00:39:00,
2013-09-09 19:44:00,82.9,74.2,28.70,South,180,3.5,3.5,75,0.00,CLR,,0.00,WeatherDisplay:10.37,2013-09-10 00:44:00,
2013-09-09 19:49:00,83.1,73.6,28.70,South,180,4.6,4.6,73,0.00,CLR,,0.00,WeatherDisplay:10.37,2013-09-10 00:49:00,
2013-09-09 19:54:00,83.8,73.4,28.70,SSE,158,2.3,2.3,71,0.00,CLR,,0.00,WeatherDisplay:10.37,2013-09-10 00:54:00,
2013-09-09 19:59:00,84.6,73.7,28.70,South,180,2.3,2.3,70,0.00,CLR,,0.00,WeatherDisplay:10.37,2013-09-10 00:59:00,
2013-09-09 20:04:00,84.6,72.8,28.70,South,180,3.5,3.5,68,0.00,CLR,,0.00,WeatherDisplay:10.37,2013-09-10 01:04:00,
2013-09-09 20:09:00,84.6,72.8,28.70,South,180,3.5,3.5,68,0.00,CLR,,0.00,WeatherDisplay:10.37,2013-09-10 01:09:00,
2013-09-09 20:14:00,85.5,72.8,28.71,South,180,3.5,3.5,66,0.00,CLR,,0.00,WeatherDisplay:10.37,2013-09-10 01:14:00,
2013-09-09 20:19:00,85.5,72.8,28.71,South,180,2.3,2.3,66,0.00,CLR,,0.00,WeatherDisplay:10.37,2013-09-10 01:19:00,
2013-09-09 20:24:00,84.7,73.0,28.71,SW,225,3.5,3.5,68,0.00,CLR,,0.00,WeatherDisplay:10.37,2013-09-10 01:24:00,
2013-09-09 20:29:00,84.6,72.8,28.71,South,180,2.3,2.3,68,0.00,CLR,,0.00,WeatherDisplay:10.37,2013-09-10 01:29:00,
2013-09-09 20:34:00,84.7,73.0,28.71,South,180,2.3,2.3,68,0.00,CLR,,0.00,WeatherDisplay:10.37,2013-09-10 01:34:00,
2013-09-09 20:39:00,84.9,72.7,28.71,SE,135,3.5,3.5,67,0.00,CLR,,0.00,WeatherDisplay:10.37,2013-09-10 01:39:00,
2013-09-09 20:44:00,84.7,72.1,28.72,South,180,3.5,3.5,66,0.00,CLR,,0.00,WeatherDisplay:10.37,2013-09-10 01:44:00,
2013-09-09 20:49:00,84.4,71.3,28.71,South,180,4.6,4.6,65,0.00,CLR,,0.00,WeatherDisplay:10.37,2013-09-10 01:49:00,
2013-09-09 20:54:00,84.4,70.9,28.72,South,180,5.8,5.8,64,0.00,CLR,,0.00,WeatherDisplay:10.37,2013-09-10 01:54:00,
2013-09-09 20:59:00,84.4,70.9,28.72,South,180,5.8,5.8,64,0.00,CLR,,0.00,WeatherDisplay:10.37,2013-09-10 01:59:00,
2013-09-09 21:04:00,84.4,70.9,28.72,South,180,6.9,6.9,64,0.00,CLR,,0.00,WeatherDisplay:10.37,2013-09-10 02:04:00,
2013-09-09 21:09:00,84.4,70.4,28.72,South,180,5.8,5.8,63,0.00,CLR,,0.00,WeatherDisplay:10.37,2013-09-10 02:09:00,
2013-09-09 21:14:00,84.2,70.2,28.72,South,180,6.9,6.9,63,0.00,CLR,,0.00,WeatherDisplay:10.37,2013-09-10 02:14:00,
2013-09-09 21:19:00,84.2,70.2,28.72,South,180,6.9,6.9,63,0.00,CLR,,0.00,WeatherDisplay:10.37,2013-09-10 02:19:00,
2013-09-09 21:24:00,84.4,70.4,28.73,South,180,8.1,8.1,63,0.00,CLR,,0.00,WeatherDisplay:10.37,2013-09-10 02:24:00,
2013-09-09 21:29:00,84.4,69.9,28.73,SW,225,5.8,5.8,62,0.00,CLR,,0.00,WeatherDisplay:10.37,2013-09-10 02:29:00,
2013-09-09 21:34:00,84.7,69.8,28.73,South,180,5.8,5.8,61,0.00,CLR,,0.00,WeatherDisplay:10.37,2013-09-10 02:34:00,
2013-09-09 21:39:00,85.5,71.0,28.74,NW,315,2.3,0.0,62,0.00,CLR,,0.00,WeatherDisplay:10.37,2013-09-10 02:39:00,
2013-09-09 21:44:00,85.6,70.6,28.74,South,180,2.3,0.0,61,0.00,CLR,,0.00,WeatherDisplay:10.37,2013-09-10 02:44:00,
2013-09-09 21:49:00,84.6,70.1,28.74,SW,225,6.9,6.9,62,0.00,CLR,,0.00,WeatherDisplay:10.37,2013-09-10 02:49:00,
2013-09-09 21:54:00,84.0,70.1,28.74,SE,135,3.5,3.5,63,0.00,CLR,,0.00,WeatherDisplay:10.37,2013-09-10 02:54:00,
2013-09-09 21:59:00,83.8,69.9,28.74,SW,225,3.5,3.5,63,0.00,CLR,,0.00,WeatherDisplay:10.37,2013-09-10 02:59:00,
2013-09-09 22:04:00,83.8,69.9,28.74,SW,225,3.5,3.5,63,0.00,CLR,,0.00,WeatherDisplay:10.37,2013-09-10 03:04:00,
2013-09-09 22:09:00,83.7,70.2,28.74,SW,225,3.5,3.5,64,0.00,CLR,,0.00,WeatherDisplay:10.37,2013-09-10 03:09:00,
2013-09-09 22:14:00,83.3,69.8,28.74,SW,225,5.8,0.0,64,0.00,CLR,,0.00,WeatherDisplay:10.37,2013-09-10 03:14:00,
2013-09-09 22:19:00,82.9,69.5,28.74,South,180,4.6,4.6,64,0.00,CLR,,0.00,WeatherDisplay:10.37,2013-09-10 03:19:00,
2013-09-09 22:24:00,82.9,70.0,28.75,West,270,3.5,0.0,65,0.00,CLR,,0.00,WeatherDisplay:10.37,2013-09-10 03:24:00,
2013-09-09 22:29:00,83.7,70.2,28.75,NW,315,2.3,0.0,64,0.00,CLR,,0.00,WeatherDisplay:10.37,2013-09-10 03:29:00,
2013-09-09 22:34:00,84.4,70.4,28.75,South,180,1.1,0.0,63,0.00,CLR,,0.00,WeatherDisplay:10.37,2013-09-10 03:34:00,
2013-09-09 22:39:00,84.9,70.4,28.75,SW,225,1.1,0.0,62,0.00,CLR,,0.00,WeatherDisplay:10.37,2013-09-10 03:39:00,
2013-09-09 22:44:00,84.9,70.9,28.75,East,90,1.1,0.0,63,0.00,CLR,,0.00,WeatherDisplay:10.37,2013-09-10 03:44:00,
2013-09-09 22:49:00,84.9,70.9,28.75,SW,225,1.1,0.0,63,0.00,CLR,,0.00,WeatherDisplay:10.37,2013-09-10 03:49:00,
2013-09-09 22:54:00,83.8,70.4,28.75,West,270,0.0,0.0,64,0.00,CLR,,0.00,WeatherDisplay:10.37,2013-09-10 03:54:00,
2013-09-09 22:59:00,82.4,69.9,28.75,East,90,0.0,0.0,66,0.00,CLR,,0.00,WeatherDisplay:10.37,2013-09-10 03:59:00,
2013-09-09 23:01:00,82.2,70.2,28.76,East,90,0.0,0.0,67,0.00,CLR,,0.00,WeatherDisplay:10.37,2013-09-10 04:01:00,
2013-09-09 23:02:00,82.2,70.2,28.75,East,90,0.0,0.0,67,0.00,CLR,,0.00,WeatherDisplay:10.37,2013-09-10 04:02:00,
2013-09-09 23:07:00,82.2,70.2,28.76,East,90,0.0,0.0,67,0.00,CLR,,0.00,WeatherDisplay:10.37,2013-09-10 04:07:00,
2013-09-09 23:12:00,80.1,70.2,28.76,NW,315,0.0,0.0,72,0.00,CLR,,0.00,WeatherDisplay:10.37,2013-09-10 04:12:00,
2013-09-09 23:17:00,79.5,70.1,28.76,West,270,3.5,3.5,73,0.00,CLR,,0.00,WeatherDisplay:10.37,2013-09-10 04:17:00,
2013-09-09 23:22:00,79.3,69.9,28.76,South,180,0.0,0.0,73,0.00,CLR,,0.00,WeatherDisplay:10.37,2013-09-10 04:22:00,
2013-09-09 23:27:00,79.0,70.0,28.76,West,270,0.0,0.0,74,0.00,CLR,,0.00,WeatherDisplay:10.37,2013-09-10 04:27:00,
2013-09-09 23:32:00,79.0,70.0,28.76,South,180,0.0,0.0,74,0.00,CLR,,0.00,WeatherDisplay:10.37,2013-09-10 04:32:00,
2013-09-09 23:37:00,78.6,70.0,28.76,North,0,0.0,0.0,75,0.00,CLR,,0.00,WeatherDisplay:10.37,2013-09-10 04:37:00,
2013-09-09 23:42:00,78.4,69.9,28.76,NE,45,0.0,0.0,75,0.00,CLR,,0.00,WeatherDisplay:10.37,2013-09-10 04:42:00,
2013-09-09 23:47:00,78.1,69.9,28.76,North,0,0.0,0.0,76,0.00,CLR,,0.00,WeatherDisplay:10.37,2013-09-10 04:47:00,
2013-09-09 23:52:00,77.7,69.5,28.76,West,270,0.0,0.0,76,0.00,CLR,,0.00,WeatherDisplay:10.37,2013-09-10 04:52:00,
2013-09-09 23:57:00,77.5,69.8,28.76,NE,45,0.0,0.0,77,0.00,CLR,,0.00,WeatherDisplay:10.37,2013-09-10 04:57:00,